User: anonymous   Login
Location: Unspecified
(0.0000°N, 0.0000°E)
Time: 00:58:34
(UTC+00:00)
Language:

TATIANA - Orbit

View from above orbital plane
View from above orbital plane
View from above satellite
View from above satellite

Ground track
Ground track

The orbit data is extracted from the following two-line orbital elements,

1 28523U 05002C   21023.66662572  .00000030  00000-0  11936-4 0  9992
2 28523  82.9492  95.5995 0037912 193.9403 166.0717 13.87523255810692
Epoch (UTC): 23 January 2021 15:59:56
Eccentricity: 0.0037912
inclination: 82.9492°
perigee height: 909 km
apogee height: 965 km
right ascension of ascending node: 95.5995°
argument of perigee: 193.9403°
revolutions per day: 13.87523255
mean anomaly at epoch: 166.0717°
orbit number at epoch: 81069

The dashed part of the orbit path shows where the satellite is in the earth's shadow,  

DLR